Weather History for LIPZ - June, 2013

Change the Weather History Date:

Tuesday, June 4, 2013

  Actual Average Record
Temperature  
Mean Temperature 67 °F -  
Max Temperature 75 °F 78 °F 89 °F (2015)
Min Temperature 59 °F 61 °F 48 °F (2001)
Cooling Degree Days 2    
Growing Degree Days 17 (Base 50)    
Moisture  
Dew Point 55 °F    
Average Humidity 66    
Maximum Humidity 88    
Minimum Humidity 36    
Precipitation  
Precipitation 0.00 in 0.10 in - ()
Sea Level Pressure  
Sea Level Pressure 29.91 in    
Wind  
Wind Speed 4 mph ()    
Max Wind Speed 13 mph    
Max Gust Speed -    
Visibility 6.2 miles    
Events      
Averages and records for this station are not official NWS values.
T = Trace of Precipitation, MM = Missing Value Source: Averaged Metar Reports

Daily Weather History Graph

Daily Weather History Graph

Search for Another Location

Airport or City:

Trip Planner

Search our weather history database for the weather conditions in past years. The results will help you decide how hot, cold, wet, or windy it might be!

Date:

Astronomy

Jun. 04, 2013 Rise Set
Actual Time 5:23 AM CEST 8:54 PM CEST
Civil Twilight 4:46 AM CEST 9:31 PM CEST
Nautical Twilight 3:57 AM CEST 10:21 PM CEST
Astronomical Twilight 2:53 AM CEST 11:25 PM CEST
Moon 2:55 AM CEST (6/4) 4:58 PM CEST (6/4)
Length of Visible Light 16h 45m
Length of Day
15h 30m
Waning Crescent, 16% of the Moon is Illuminated
Jun 4
Waning Crescent
Jun 8
New
Jun 16
First Quarter
Jun 23
Full
Jun 30
Last Quarter

Hourly Weather History & Observations

Time (CEST) Temp. Dew Point Humidity Pressure Visibility Wind Dir Wind Speed Gust Speed Precip Events Conditions
12:20 AM 64.4 °F 51.8 °F 64% 29.92 in - Variable 1.2 mph - N/A   Clear
12:50 AM 64.4 °F 53.6 °F 68% 29.95 in - Variable 3.5 mph - N/A   Clear
1:20 AM 66.2 °F 51.8 °F 60% 29.92 in - Variable 2.3 mph - N/A   Clear
1:50 AM 66.2 °F 55.4 °F 68% 29.95 in 6.2 mi ENE 12.7 mph - N/A   Scattered Clouds
2:20 AM 64.4 °F 55.4 °F 73% 29.95 in 6.2 mi East 9.2 mph - N/A   Scattered Clouds
2:50 AM 64.4 °F 55.4 °F 73% 29.95 in 6.2 mi East 6.9 mph - N/A   Scattered Clouds
3:20 AM 64.4 °F 55.4 °F 73% 29.95 in 6.2 mi ENE 11.5 mph - N/A   Scattered Clouds
3:50 AM 62.6 °F 55.4 °F 77% 29.95 in 6.2 mi East 11.5 mph - N/A   Scattered Clouds
4:20 AM 62.6 °F 55.4 °F 77% 29.92 in 6.2 mi East 8.1 mph - N/A   Scattered Clouds
4:50 AM 62.6 °F 55.4 °F 77% 29.92 in 6.2 mi Variable 2.3 mph - N/A   Scattered Clouds
5:20 AM 60.8 °F 55.4 °F 82% 29.92 in 6.2 mi North 5.8 mph - N/A   Scattered Clouds
5:50 AM 59.0 °F 53.6 °F 82% 29.92 in - North 5.8 mph - N/A   Clear
6:20 AM 60.8 °F 55.4 °F 82% 29.92 in - North 4.6 mph - N/A   Clear
6:50 AM 60.8 °F 55.4 °F 82% 29.92 in - North 4.6 mph - N/A   Clear
7:20 AM 60.8 °F 55.4 °F 82% 29.92 in - Variable 2.3 mph - N/A   Clear
7:50 AM 60.8 °F 57.2 °F 88% 29.95 in - Variable 3.5 mph - N/A   Clear
8:20 AM 62.6 °F 57.2 °F 82% 29.92 in - Variable 3.5 mph - N/A   Clear
8:50 AM 64.4 °F 57.2 °F 77% 29.92 in - Variable 1.2 mph - N/A   Clear
9:20 AM 66.2 °F 55.4 °F 68% 29.92 in - Variable 1.2 mph - N/A   Clear
9:50 AM 68.0 °F 55.4 °F 64% 29.92 in - Variable 3.5 mph - N/A   Clear
10:20 AM 68.0 °F 57.2 °F 68% 29.92 in - Variable 3.5 mph - N/A   Clear
10:50 AM 66.2 °F 55.4 °F 68% 29.92 in - SE 4.6 mph - N/A   Clear
11:20 AM 69.8 °F 57.2 °F 64% 29.92 in - Variable 3.5 mph - N/A   Clear
11:50 AM 69.8 °F 57.2 °F 64% 29.92 in - ESE 5.8 mph - N/A   Clear
12:20 PM 69.8 °F 59.0 °F 68% 29.92 in - SE 5.8 mph - N/A   Clear
12:50 PM 69.8 °F 57.2 °F 64% 29.92 in - SE 5.8 mph - N/A   Clear
1:20 PM 71.6 °F 59.0 °F 64% 29.89 in - SE 6.9 mph - N/A   Clear
1:50 PM 69.8 °F 57.2 °F 64% 29.89 in - SE 5.8 mph - N/A   Clear
2:20 PM 71.6 °F 55.4 °F 57% 29.89 in - SE 5.8 mph - N/A   Clear
2:50 PM 71.6 °F 53.6 °F 53% 29.89 in - SE 4.6 mph - N/A   Clear
3:20 PM 73.4 °F 53.6 °F 50% 29.89 in 6.2 mi Variable 3.5 mph - N/A   Partly Cloudy
3:50 PM 75.2 °F 51.8 °F 44% 29.89 in 6.2 mi Variable 2.3 mph - N/A   Partly Cloudy
4:20 PM 71.6 °F 50.0 °F 46% 29.89 in 6.2 mi Variable 2.3 mph - N/A   Partly Cloudy
4:50 PM 75.2 °F 46.4 °F 36% 29.89 in 6.2 mi Variable 2.3 mph - N/A   Partly Cloudy
5:20 PM 73.4 °F 46.4 °F 38% 29.89 in 6.2 mi Variable 2.3 mph - N/A   Partly Cloudy
5:50 PM 73.4 °F 46.4 °F 38% 29.89 in 6.2 mi Variable 3.5 mph - N/A   Partly Cloudy
6:20 PM 71.6 °F 53.6 °F 53% 29.89 in 6.2 mi Variable 3.5 mph - N/A   Partly Cloudy
6:50 PM 71.6 °F 53.6 °F 53% 29.86 in 6.2 mi ESE 5.8 mph - N/A   Partly Cloudy
7:20 PM 69.8 °F 57.2 °F 64% 29.89 in - ESE 5.8 mph - N/A   Clear
7:50 PM 69.8 °F 57.2 °F 64% 29.86 in - SE 4.6 mph - N/A   Clear
8:20 PM 68.0 °F 57.2 °F 68% 29.89 in 6.2 mi SE 4.6 mph - N/A   Partly Cloudy
8:50 PM 68.0 °F 57.2 °F 68% 29.89 in 6.2 mi SE 4.6 mph - N/A   Scattered Clouds
9:20 PM 68.0 °F 59.0 °F 73% 29.89 in 6.2 mi ESE 4.6 mph - N/A   Scattered Clouds
9:50 PM 68.0 °F 59.0 °F 73% 29.92 in 6.2 mi SE 4.6 mph - N/A   Scattered Clouds
10:20 PM 66.2 °F 55.4 °F 68% 29.92 in 6.2 mi Variable 3.5 mph - N/A   Scattered Clouds
10:50 PM 68.0 °F 57.2 °F 68% 29.92 in 6.2 mi Variable 1.2 mph - N/A   Mostly Cloudy
11:20 PM 68.0 °F 55.4 °F 64% 29.92 in - Calm Calm - N/A   Clear
11:50 PM 66.2 °F 57.2 °F 73% 29.95 in 6.2 mi Variable 2.3 mph - N/A   Scattered Clouds